User: anonymous   Login
Location: Unspecified
(0.0000°N, 0.0000°E)
Time: 21:57:02
(UTC+00:00)
Language:

UNISAT 3 - Orbit

View from above orbital plane
View from above orbital plane
View from above satellite
View from above satellite

Ground track
Ground track

The orbit data is extracted from the following two-line orbital elements,

1 28373U 04025H   17082.92446611 +.00000106 +00000-0 +41613-4 0  9991
2 28373 098.3286 026.4847 0070200 108.2999 252.5847 14.45379478671592
Epoch (UTC): 23 March 2017 22:11:13
Eccentricity: 0.0070200
inclination: 98.3286°
perigee height: 691 km
apogee height: 791 km
right ascension of ascending node: 26.4847°
argument of perigee: 108.2999°
revolutions per day: 14.45379478
mean anomaly at epoch: 252.5847°
orbit number at epoch: 67159

The dashed part of the orbit path shows where the satellite is in the earth's shadow,  

DLR